TimeCST,TemperatureF,Dew PointF,Humidity,Sea Level PressureIn,VisibilityMPH,Wind Direction,Wind SpeedMPH,Gust SpeedMPH,PrecipitationIn,Events,Conditions,WindDirDegrees,DateUTC
12:01 AM,17.6,8.6,68,30.30,10.0,SW,4.6,-,N/A,,Overcast,230,2012-11-27 06:01:00
12:21 AM,17.6,10.4,73,30.29,10.0,SW,5.8,-,N/A,,Overcast,220,2012-11-27 06:21:00
12:41 AM,17.6,8.6,68,30.28,10.0,SW,8.1,-,N/A,,Overcast,220,2012-11-27 06:41:00
1:01 AM,17.6,8.6,68,30.27,10.0,SSW,9.2,-,N/A,,Overcast,210,2012-11-27 07:01:00
1:21 AM,17.6,10.4,73,30.27,10.0,SW,8.1,-,N/A,,Overcast,220,2012-11-27 07:21:00
1:41 AM,17.6,8.6,68,30.27,10.0,WSW,9.2,-,N/A,,Overcast,240,2012-11-27 07:41:00
2:01 AM,17.6,8.6,68,30.26,10.0,SW,8.1,-,N/A,,Overcast,220,2012-11-27 08:01:00
2:21 AM,17.6,8.6,68,30.26,10.0,SW,6.9,-,N/A,,Mostly Cloudy,220,2012-11-27 08:21:00
2:41 AM,17.6,8.6,68,30.25,10.0,SW,8.1,-,N/A,,Mostly Cloudy,230,2012-11-27 08:41:00
3:01 AM,17.6,8.6,68,30.24,10.0,SW,8.1,-,N/A,,Overcast,220,2012-11-27 09:01:00
3:21 AM,17.6,8.6,68,30.24,10.0,SSW,5.8,-,N/A,,Overcast,210,2012-11-27 09:21:00
3:41 AM,17.6,10.4,73,30.24,10.0,WSW,6.9,-,N/A,,Overcast,240,2012-11-27 09:41:00
4:01 AM,17.6,8.6,68,30.23,10.0,SW,6.9,-,N/A,,Overcast,220,2012-11-27 10:01:00
4:21 AM,17.6,10.4,73,30.22,10.0,SSW,8.1,-,N/A,,Overcast,210,2012-11-27 10:21:00
4:41 AM,17.6,10.4,73,30.21,10.0,SSW,5.8,-,N/A,,Overcast,200,2012-11-27 10:41:00
5:01 AM,17.6,10.4,73,30.20,10.0,SSW,5.8,-,N/A,,Overcast,210,2012-11-27 11:01:00
5:21 AM,17.6,10.4,73,30.20,10.0,SSW,5.8,-,N/A,,Overcast,200,2012-11-27 11:21:00
5:41 AM,17.6,10.4,73,30.19,10.0,SSW,6.9,-,N/A,,Overcast,200,2012-11-27 11:41:00
6:01 AM,17.6,10.4,73,30.19,10.0,SSW,6.9,-,N/A,,Overcast,200,2012-11-27 12:01:00
6:21 AM,17.6,10.4,73,30.19,10.0,SSW,5.8,-,N/A,,Mostly Cloudy,210,2012-11-27 12:21:00
6:41 AM,17.6,10.4,73,30.18,10.0,SSW,5.8,-,N/A,,Scattered Clouds,200,2012-11-27 12:41:00
7:01 AM,17.6,10.4,73,30.18,10.0,SSW,5.8,-,N/A,,Scattered Clouds,200,2012-11-27 13:01:00
7:21 AM,17.6,10.4,73,30.17,10.0,South,3.5,-,N/A,,Clear,190,2012-11-27 13:21:00
7:41 AM,17.6,10.4,73,30.17,10.0,Calm,Calm,-,N/A,,Clear,0,2012-11-27 13:41:00
8:01 AM,17.6,10.4,73,30.17,10.0,South,4.6,-,N/A,,Clear,190,2012-11-27 14:01:00
8:21 AM,17.6,10.4,73,30.17,10.0,SSW,4.6,-,N/A,,Clear,210,2012-11-27 14:21:00
8:41 AM,19.4,12.2,74,30.16,10.0,SSW,6.9,-,N/A,,Mostly Cloudy,210,2012-11-27 14:41:00
9:01 AM,19.4,12.2,74,30.16,10.0,SSW,8.1,-,N/A,,Mostly Cloudy,210,2012-11-27 15:01:00
9:21 AM,19.4,12.2,74,30.15,10.0,SSW,10.4,-,N/A,,Overcast,210,2012-11-27 15:21:00
9:41 AM,21.2,12.2,68,30.15,10.0,SSW,10.4,-,N/A,,Overcast,210,2012-11-27 15:41:00
10:01 AM,21.2,12.2,68,30.15,7.0,SW,6.9,-,N/A,Snow,Light Snow,220,2012-11-27 16:01:00
10:21 AM,21.2,14.0,74,30.15,10.0,SW,3.5,-,N/A,,Overcast,230,2012-11-27 16:21:00
10:41 AM,21.2,14.0,74,30.15,10.0,SW,5.8,-,N/A,,Overcast,230,2012-11-27 16:41:00
11:01 AM,23.0,14.0,68,30.14,10.0,SW,3.5,-,N/A,,Overcast,230,2012-11-27 17:01:00
11:21 AM,24.8,17.6,74,30.12,10.0,SSW,8.1,-,N/A,,Mostly Cloudy,210,2012-11-27 17:21:00
11:41 AM,24.8,17.6,74,30.11,10.0,SSW,9.2,-,N/A,,Overcast,210,2012-11-27 17:41:00
12:01 PM,26.6,19.4,74,30.10,10.0,SW,9.2,-,N/A,,Overcast,220,2012-11-27 18:01:00
12:21 PM,26.6,17.6,69,30.10,10.0,WSW,4.6,-,N/A,,Overcast,250,2012-11-27 18:21:00
12:41 PM,26.6,17.6,69,30.10,10.0,SW,6.9,-,N/A,,Overcast,230,2012-11-27 18:41:00
1:01 PM,26.6,17.6,69,30.09,10.0,WSW,5.8,-,N/A,,Overcast,240,2012-11-27 19:01:00
1:21 PM,30.2,19.4,64,30.09,10.0,West,8.1,-,N/A,,Mostly Cloudy,260,2012-11-27 19:21:00
1:41 PM,30.2,19.4,64,30.09,10.0,WSW,6.9,-,N/A,,Scattered Clouds,240,2012-11-27 19:41:00
2:01 PM,32.0,21.2,64,30.08,10.0,WSW,6.9,-,N/A,,Scattered Clouds,240,2012-11-27 20:01:00
2:21 PM,30.2,19.4,64,30.08,10.0,West,8.1,-,N/A,,Mostly Cloudy,280,2012-11-27 20:21:00
2:41 PM,30.2,19.4,64,30.08,10.0,West,8.1,-,N/A,,Overcast,260,2012-11-27 20:41:00
3:01 PM,32.0,21.2,64,30.09,10.0,West,4.6,-,N/A,,Overcast,270,2012-11-27 21:01:00
3:21 PM,32.0,21.2,64,30.09,10.0,West,5.8,-,N/A,,Overcast,270,2012-11-27 21:21:00
3:41 PM,30.2,21.2,69,30.10,10.0,West,3.5,-,N/A,,Overcast,280,2012-11-27 21:41:00
4:01 PM,32.0,21.2,64,30.10,10.0,WNW,3.5,-,N/A,,Mostly Cloudy,300,2012-11-27 22:01:00
4:21 PM,30.2,21.2,69,30.10,10.0,Calm,Calm,-,N/A,,Mostly Cloudy,0,2012-11-27 22:21:00
4:41 PM,28.4,21.2,74,30.10,10.0,WSW,3.5,-,N/A,,Overcast,250,2012-11-27 22:41:00
5:01 PM,26.6,21.2,80,30.11,10.0,Calm,Calm,-,N/A,,Overcast,0,2012-11-27 23:01:00
5:21 PM,26.6,21.2,80,30.11,10.0,Calm,Calm,-,N/A,,Mostly Cloudy,0,2012-11-27 23:21:00
6:01 PM,23.0,19.4,86,30.13,10.0,Calm,Calm,-,N/A,,Clear,0,2012-11-28 00:01:00
6:21 PM,21.2,15.8,80,30.13,10.0,Calm,Calm,-,N/A,,Clear,0,2012-11-28 00:21:00
6:41 PM,17.6,14.0,86,30.13,10.0,Calm,Calm,-,N/A,,Clear,0,2012-11-28 00:41:00
7:01 PM,17.6,14.0,86,30.14,7.0,Calm,Calm,-,N/A,,Clear,0,2012-11-28 01:01:00
7:21 PM,17.6,14.0,86,30.14,7.0,Calm,Calm,-,N/A,,Scattered Clouds,0,2012-11-28 01:21:00
7:41 PM,17.6,14.0,86,30.15,7.0,Calm,Calm,-,N/A,,Mostly Cloudy,0,2012-11-28 01:41:00
8:01 PM,17.6,14.0,86,30.15,7.0,Calm,Calm,-,N/A,,Scattered Clouds,0,2012-11-28 02:01:00
8:21 PM,17.6,14.0,86,30.16,10.0,Calm,Calm,-,N/A,,Mostly Cloudy,0,2012-11-28 02:21:00
8:41 PM,17.6,14.0,86,30.16,10.0,Calm,Calm,-,N/A,,Overcast,0,2012-11-28 02:41:00
9:01 PM,17.6,14.0,86,30.17,10.0,Calm,Calm,-,N/A,,Overcast,0,2012-11-28 03:01:00
9:21 PM,19.4,15.8,86,30.18,10.0,Calm,Calm,-,N/A,,Overcast,0,2012-11-28 03:21:00
9:41 PM,21.2,19.4,93,30.19,10.0,WSW,3.5,-,N/A,,Overcast,250,2012-11-28 03:41:00
10:01 PM,24.8,21.2,86,30.19,10.0,West,5.8,-,N/A,,Overcast,280,2012-11-28 04:01:00
10:21 PM,26.6,23.0,86,30.19,10.0,WNW,5.8,-,N/A,,Overcast,290,2012-11-28 04:21:00
10:41 PM,26.6,19.4,74,30.19,10.0,WNW,8.1,-,N/A,,Overcast,300,2012-11-28 04:41:00
11:01 PM,26.6,19.4,74,30.20,10.0,WNW,9.2,-,N/A,,Overcast,300,2012-11-28 05:01:00
11:21 PM,26.6,19.4,74,30.21,10.0,WNW,8.1,-,N/A,,Overcast,300,2012-11-28 05:21:00